Location: A�t Bou Mzil
(32.9515°N, 5.3320°W)
Time: 10:41:54
(UTC+00:00)

Daily predictions for brighter satellites

Satellite Brightness Start Highest point End
(mag) Time Altitude Azimuth Time Altitude Azimuth Time Altitude Azimuth
NOSS 2-3 (E) 3.6 17:35:38 10° SSW 17:39:52 88° WNW 17:44:32 10° NNE
CORIOLIS 4.4 17:37:29 10° SE 17:42:38 48° ENE 17:47:51 10° N
YAOGAN 1 4.5 17:43:13 10° ENE 17:43:24 10° ENE 17:43:35 10° ENE
Feng Yun 1-1 Rocket 4.3 17:38:17 10° SSE 17:43:51 65° ENE 17:49:18 10° N
NOSS 3-1 (A) 4.0 17:42:37 10° SW 17:47:51 53° NW 17:53:46 10° NNE
SeaSat 1 3.7 17:44:56 10° E 17:48:26 20° NE 17:51:56 10° N
Cosmos 2219 3.5 17:42:57 10° NNW 17:48:34 76° WSW 17:54:09 10° SSE
NOSS 2-3 (D) 3.8 17:45:17 10° SW 17:49:30 76° WNW 17:54:09 10° NNE
Cosmos 1980 Rocket 2.6 17:45:31 10° S 17:50:51 45° ESE 17:56:14 10° NE
Envisat 3.5 17:52:10 10° SE 17:56:47 37° ENE 18:01:25 10° N
Cosmos 2297 Rocket 2.2 17:57:36 10° NNW 18:03:17 88° WSW 18:08:56 10° SSE
Cosmos 2227 Rocket 2.2 17:58:03 10° NNW 18:03:45 85° ENE 18:09:23 10° SSE
NOAA 12 4.1 18:04:25 10° SSE 18:09:40 65° ENE 18:14:57 10° N
H-2A R/B 3.0 18:05:51 10° S 18:09:41 74° WSW 18:13:31 10° NNW
BREEZE-M R/B 4.1 18:03:19 10° SSW 18:10:02 39° SE 18:12:45 17° ENE
SKYMED 2 3.6 18:08:19 10° NNE 18:12:36 58° E 18:16:52 10° S
Cosmos 1513 Rocket 4.5 18:08:14 10° N 18:14:37 72° E 18:20:53 10° SSE
Cosmos 1633 2.4 18:11:56 10° N 18:15:35 84° E 18:19:11 10° S
Hubble Space Telescope 2.7 18:13:17 10° SSW 18:16:06 18° SSE 18:18:38 11° ESE
Intelsat 5-3 Rocket 3.9 18:14:55 10° SW 18:16:21 13° S 18:17:34 10° SSE
Okean-O 2.5 18:12:59 10° SSE 18:17:24 80° ENE 18:21:51 10° N
Cosmos 2263 Rocket 4.1 18:19:01 10° NNE 18:19:31 11° NE 18:19:31 11° NE
Cosmos 158 Rocket 4.0 18:17:22 10° S 18:22:40 71° ESE 18:27:53 10° NNE
Cosmos 2034 Rocket 4.0 18:17:20 10° N 18:23:38 61° E 18:29:54 10° SSE
PSLV R/B 3.5 18:21:26 10° NW 18:23:43 29° NNE 18:23:54 29° NNE
FengYun 1-2 T 4.3 18:20:17 10° SSE 18:25:39 54° ENE 18:30:59 10° N
SMAP 4.4 18:23:50 10° S 18:28:13 42° W 18:32:38 10° NNW
Cosmos 1697 Rocket 4.0 18:23:53 10° SW 18:29:10 40° WNW 18:34:29 10° N
ATLAS 5 CENTAUR R/B 3.1 18:23:29 10° NW 18:29:37 62° WSW 18:36:26 10° SSE
GPS 2-04 Rocket1 2.3 18:27:54 10° W 18:31:20 72° NNW 18:32:34 36° ENE
CZ-4 R/B 1.5 18:29:47 10° SSE 18:33:50 51° ENE 18:37:48 10° N
Cosmos 2082 3.7 18:28:23 10° NNW 18:34:01 87° WSW 18:39:38 10° SSE
DELTA 2 R/B (1) 3.6 18:30:10 10° SW 18:35:44 71° SSE 18:38:45 28° ENE
Lacrosse 4 Rocket 4.1 18:33:48 10° W 18:36:01 14° NW 18:38:13 10° NNW
SL-8 R/B 3.9 18:33:19 10° WSW 18:38:06 67° NW 18:40:52 25° NE
Cosmos 1816 Rocket 4.5 18:33:50 10° S 18:40:10 84° E 18:46:33 10° N
Cosmos 2228 Rocket 3.3 18:36:10 10° SSE 18:40:25 47° E 18:43:03 22° NNE
TELKOM 3 3.4 18:38:24 10° WNW 18:40:16 53° WSW 18:40:16 53° WSW
Cosmos 1634 Rocket 4.5 18:36:19 10° NNE 18:41:49 33° ENE 18:47:17 10° SE
Tsikada Rocket 4.0 18:36:11 10° S 18:42:31 83° E 18:48:57 10° N
YAOGAN 6 2.3 18:39:24 10° SSE 18:42:53 82° E 18:46:22 10° N
CZ-4 R/B 4.3 18:38:50 10° SSE 18:42:56 74° ENE 18:47:05 10° N
Cosmos 1633 Rocket 3.6 18:40:59 10° NNW 18:45:20 60° W 18:49:40 10° S
GENESIS II 4.2 18:42:19 10° SSW 18:46:18 82° WNW 18:48:13 30° NNE
Cosmos 1151 Rocket 3.8 18:42:04 10° SSW 18:46:19 53° W 18:50:36 10° N
Delta 168 4.1 18:44:25 10° SW 18:47:05 23° S 18:48:00 21° SSE
Cosmos 724 4.2 18:42:50 10° NNW 18:48:35 60° ENE 18:53:52 12° SE
Aurora 2 Rocket 4.3 18:49:41 10° SSW 18:52:39 20° SSE 18:53:31 19° SE
Cosmos 1933 3.4 18:50:30 10° S 18:54:34 80° W 18:57:50 15° N
Cosmos 1515 Rocket 3.9 18:51:55 10° SSW 18:56:16 64° W 19:00:37 10° N
Meteor 1-26 Rocket 4.3 18:50:42 10° S 18:56:33 60° E 19:01:41 14° NNE
COSMO-SKYMED 1 4.1 18:56:32 10° N 19:00:29 35° WNW 19:04:25 10° SW
Cosmos 1933 Rocket 3.3 18:56:24 10° N 19:00:45 72° E 19:05:04 10° SSE
ISS -2.1 18:59:17 10° SSW 19:01:01 25° S 19:01:01 25° S
NOAA 11 4.1 19:00:05 10° SSE 19:05:22 58° ENE 19:10:42 10° N
CSL-04 Debris 4.1 19:00:47 10° SSE 19:06:17 89° ENE 19:11:48 10° NNW
Cosmos 1606 3.3 19:08:11 10° SSW 19:11:53 54° W 19:12:55 39° NNW
Cosmos 1624 Rocket 3.9 19:10:34 10° NNW 19:15:56 89° WSW 19:21:14 10° SSE
Cosmos 2056 Rocket 3.3 19:11:35 10° NNW 19:16:45 90° E 19:20:44 18° SSE
YAOGAN 1 3.1 19:14:42 10° S 19:18:56 57° W 19:23:12 10° NNW
CSL-04 Rocket 3.9 19:14:30 10° S 19:19:51 68° WSW 19:25:09 10° NNW
Meteor 1-25 Rocket 4.1 19:19:48 10° N 19:25:31 78° E 19:31:18 10° SSE
SeaSat 1 3.4 19:20:54 10° S 19:25:36 46° WSW 19:30:20 10° NW
Meteor 1-20 Rocket 4.1 19:21:44 10° N 19:27:36 81° E 19:33:20 10° S
Cosmos 2360 Rocket 4.2 19:23:59 10° SSE 19:24:51 14° SSE 19:24:51 14° SSE
SL-16 R/B 2.2 19:26:39 10° SSW 19:32:19 80° WNW 19:32:55 70° N
Cosmos 1980 Rocket 4.4 19:30:49 10° WSW 19:35:02 21° WNW 19:39:16 10° N
Cosmos 2322 Rocket 2.2 19:34:38 10° SSW 19:39:45 73° SW 19:39:45 73° SW
COSMOS 2455 3.2 19:43:21 10° SSW 19:48:02 57° SSW 19:48:02 57° SSW
Hubble Space Telescope 3.5 19:53:01 10° WSW 19:53:59 16° SW 19:53:59 16° SW
Cosmos 2263 Rocket 4.2 20:00:01 10° NNW 20:01:16 17° NNW 20:01:16 17° NNW
ATLAS 2AS CENTAUR R/B 4.0 20:12:36 10° SSW 20:16:35 35° SSW 20:16:35 35° SSW
H-2A R/B 3.9 19:41:09 10° W 20:28:10 68° SSW 20:29:14 65° S
ATLAS 5 CENTAUR R/B 4.5 21:17:21 10° WSW 22:04:59 13° ESE 22:11:07 10° ESE
